Location: Limoges
(45.8500°N, 1.2500°E)
Time: 12:01:11
(UTC+02:00)

ISS - Pass Details

Date: 01 June 2020
Orbit: 417 x 421 km, 51.6° (Epoch: 07 July)

Event Time Altitude Azimuth Distance (km) Brightness Sun altitude
Rises 22:55:18 0° 292° (WNW) 2,379 1.3 -10.9°
Reaches altitude 10° 22:57:37 10° 279° (W) 1,511 -0.1 -11.2°
Maximum altitude 23:00:30 26° 221° (SW) 865 -2.3 -11.5°
Enters shadow 23:02:30 15° 172° (S) 1,215 -1.9 -11.7°
